sat.trackr.live / text

‹ back to catalog

RAISE-4

NORAD 67073 · 2025-297B

PAYLOAD ACTIVE UNKNOWN

§ Identity

Operator
Country
JPN
Launch date
2025-12-14
Launch site
RLLB
Launch vehicle
Mass (kg)
RCS (m²)

External: N2YO · Heavens-Above · Gunter

§ Orbital elements

Epoch: 2026-05-24T23:48:55.696320Z

Period
95.44 min
Inclination
97.5091°
Eccentricity
0.0013894
Mean motion
15.08813762 rev/d
Perigee alt
530.2 km
Apogee alt
549.4 km
Semi-major
6,918.0 km
B*
1.9432e-4
RAAN
293.5468°
Arg perigee
114.5119°
Mean anomaly
245.7560°
Rev number
2,439

§ Raw data

RAISE-41 67073U 25297B   26144.99231130  .00003000  00000+0  19432-3 0  99972 67073  97.5091 293.5468 0013894 114.5119 245.7560 15.08813762 24398

JSON: /api/v1/satellites/67073 · /tle

For live sub-satellite position, see the globe view (requires WebGL).

§ Visibility from observer

Set your observer location to see the next 7 days of passes ≥ 10°. The values pass through the URL so the page stays shareable.

No JS? Fill the form by hand. The geolocation button needs JavaScript.